Date String (YYYY-MM-DD hh:mm:ss) UTC,Instrument flags,Ambient pressure (hPa),Sample flow (lpm),Bypass flow (lpm),Sample temperature (°C),Ambient temperature (°C),ASC tube jacket temperature (°C),LED temperature (°C),Box temperature (°C),Sample RH (%),Span deviation,Mass concentration (μg/m³),Mass concentration (μg/m³),Mass concentration (μg/m³)
DateTimeUTC,F1_M11,P_M11,Q1_M11,Q2_M11,T1_M11,T2_M11,T3_M11,T4_M11,T5_M11,U1_M11,ZSPAN_M11,X2_M11,X0_M11,X1_M11
2022-12-29 01:00:00,,0811.0,5.00,0.00,24.6,22.7,00.0,33.8,26.2,21.3,0000.0,0002.37,0003.86,0001.87
2022-12-29 01:01:00,,0811.1,5.01,0.00,24.6,22.7,00.0,33.8,26.2,21.3,0000.0,0002.28,0003.71,0001.82
2022-12-29 01:02:00,,0811.0,5.01,0.00,24.5,22.6,00.0,33.7,26.2,21.1,0000.0,0002.27,0003.73,0001.79
2022-12-29 01:03:00,,0811.0,5.00,0.00,24.5,22.5,00.0,33.7,26.1,21.0,0000.0,0002.28,0003.74,0001.81
2022-12-29 01:04:00,,0811.0,5.00,0.00,24.5,22.5,00.0,33.6,26.0,20.9,0000.0,0002.30,0003.80,0001.82
2022-12-29 01:05:00,,0811.0,4.99,0.00,24.4,22.5,00.0,33.6,26.0,20.8,0000.0,0002.31,0003.74,0001.83
2022-12-29 01:06:00,,0811.0,5.00,0.00,24.4,22.4,00.0,33.6,26.0,20.7,0000.0,0002.35,0003.73,0001.89
2022-12-29 01:07:00,,0811.0,5.00,0.00,24.4,22.5,00.0,33.5,26.0,20.8,0000.0,0002.39,0003.72,0001.94
2022-12-29 01:08:00,,0811.1,5.00,0.00,24.4,22.5,00.0,33.5,26.0,20.7,0000.0,0002.40,0003.62,0001.98
2022-12-29 01:09:00,,0811.1,5.01,0.00,24.4,22.6,00.0,33.5,26.1,20.8,0000.0,0002.48,0003.76,0002.02
2022-12-29 01:10:00,,0811.0,5.00,0.00,24.4,22.6,00.0,33.5,26.0,20.8,0000.0,0002.56,0003.91,0002.08
2022-12-29 01:11:00,,0811.0,5.00,0.00,24.3,22.6,00.0,33.5,26.1,20.6,0000.0,0002.64,0003.97,0002.17
2022-12-29 01:12:00,,0811.0,5.00,0.00,24.3,22.6,00.0,33.4,26.1,20.5,0000.0,0002.73,0004.06,0002.26
2022-12-29 01:13:00,,0811.1,5.00,0.00,24.3,22.6,00.0,33.4,26.1,20.5,0000.0,0002.74,0003.98,0002.33
2022-12-29 01:14:00,,0811.0,5.01,0.00,24.3,22.7,00.0,33.4,26.1,20.5,0000.0,0002.76,0003.96,0002.38
2022-12-29 01:15:00,,0811.0,5.01,0.00,24.3,22.6,00.0,33.4,26.0,20.4,0000.0,0002.83,0003.99,0002.46
2022-12-29 01:16:00,,0811.0,5.00,0.00,24.3,22.6,00.0,33.4,26.0,20.3,0000.0,0002.94,0004.15,0002.56
2022-12-29 01:17:00,,0811.0,5.00,0.00,24.3,22.5,00.0,33.3,26.0,20.3,0000.0,0003.04,0004.28,0002.65
2022-12-29 01:18:00,,0811.0,5.01,0.00,24.3,22.6,00.0,33.3,26.0,20.3,0000.0,0003.13,0004.41,0002.75
2022-12-29 01:19:00,,0811.0,5.01,0.00,24.3,22.6,00.0,33.3,26.0,20.3,0000.0,0003.22,0004.78,0002.86
2022-12-29 01:20:00,,0811.1,5.01,0.00,24.3,22.7,00.0,33.3,26.0,20.3,0000.0,0003.24,0004.78,0002.94
2022-12-29 01:21:00,,0811.0,5.00,0.00,24.3,22.7,00.0,33.3,26.0,20.3,0000.0,0003.26,0004.72,0003.02
2022-12-29 01:22:00,,0811.0,5.00,0.00,24.3,22.7,00.0,33.3,26.0,20.2,0000.0,0003.29,0004.77,0003.09
2022-12-29 01:23:00,,0811.0,5.00,0.00,24.3,22.6,00.0,33.3,26.0,20.1,0000.0,0003.32,0004.82,0003.13
2022-12-29 01:24:00,,0811.0,4.99,0.00,24.2,22.6,00.0,33.2,26.0,20.1,0000.0,0003.37,0004.98,0003.18
2022-12-29 01:25:00,,0811.0,5.00,0.00,24.2,22.6,00.0,33.2,26.0,20.1,0000.0,0003.41,0005.07,0003.21
2022-12-29 01:26:00,,0811.0,5.01,0.00,24.2,22.6,00.0,33.2,26.0,20.1,0000.0,0003.41,0005.04,0003.23
2022-12-29 01:27:00,,0811.0,5.01,0.00,24.2,22.6,00.0,33.2,26.0,20.1,0000.0,0003.42,0005.05,0003.23
2022-12-29 01:28:00,,0811.0,5.00,0.00,24.2,22.6,00.0,33.2,26.0,20.0,0000.0,0003.41,0005.06,0003.24
2022-12-29 01:29:00,,0811.0,5.00,0.00,24.2,22.6,00.0,33.2,26.0,20.0,0000.0,0003.45,0005.19,0003.25
2022-12-29 01:30:00,,0811.0,4.99,0.00,24.2,22.7,00.0,33.2,26.0,20.0,0000.0,0003.44,0005.03,0003.27
2022-12-29 01:31:00,,0811.0,5.00,0.00,24.2,22.7,00.0,33.2,26.0,20.0,0000.0,0003.45,0005.02,0003.29
2022-12-29 01:32:00,,0811.0,5.00,0.00,24.2,22.7,00.0,33.2,26.1,20.0,0000.0,0003.47,0005.15,0003.30
2022-12-29 01:33:00,,0811.1,5.00,0.00,24.2,22.7,00.0,33.2,26.0,19.9,0000.0,0003.48,0005.16,0003.30
2022-12-29 01:34:00,,0811.0,4.99,0.00,24.2,22.6,00.0,33.2,26.0,19.8,0000.0,0003.47,0005.12,0003.29
2022-12-29 01:35:00,,0811.0,4.99,0.00,24.2,22.6,00.0,33.2,26.0,19.7,0000.0,0003.46,0005.09,0003.29
2022-12-29 01:36:00,,0811.0,5.01,0.00,24.2,22.5,00.0,33.2,25.9,19.7,0000.0,0003.47,0005.15,0003.29
2022-12-29 01:37:00,,0811.0,5.00,0.00,24.2,22.4,00.0,33.2,25.9,19.7,0000.0,0003.47,0005.15,0003.29
2022-12-29 01:38:00,,0811.0,5.00,0.00,24.1,22.4,00.0,33.1,25.9,19.7,0000.0,0003.47,0005.12,0003.29
2022-12-29 01:39:00,,0811.0,5.00,0.00,24.1,22.3,00.0,33.1,25.9,19.6,0000.0,0003.48,0005.20,0003.30
2022-12-29 01:40:00,,0811.0,5.00,0.00,24.1,22.3,00.0,33.1,25.8,19.6,0000.0,0003.48,0005.20,0003.31
2022-12-29 01:41:00,,0811.0,5.00,0.00,24.0,22.2,00.0,33.1,25.7,19.6,0000.0,0003.47,0005.16,0003.31
2022-12-29 01:42:00,,0811.0,5.00,0.00,24.0,22.2,00.0,33.1,25.7,19.6,0000.0,0003.50,0005.29,0003.32
2022-12-29 01:43:00,,0811.0,5.01,0.00,24.0,22.2,00.0,33.1,25.7,19.6,0000.0,0003.50,0005.33,0003.32
2022-12-29 01:44:00,,0811.0,5.00,0.00,24.0,22.3,00.0,33.0,25.7,19.6,0000.0,0003.51,0005.34,0003.32
2022-12-29 01:45:00,,0811.0,5.00,0.00,24.0,22.3,00.0,33.0,25.7,19.6,0000.0,0003.52,0005.37,0003.34
2022-12-29 01:46:00,,0811.1,5.00,0.00,24.0,22.4,00.0,33.0,25.7,19.7,0000.0,0003.55,0005.46,0003.35
2022-12-29 01:47:00,,0811.2,5.00,0.00,24.0,22.4,00.0,33.0,25.8,19.6,0000.0,0003.56,0005.45,0003.37
2022-12-29 01:48:00,,0811.1,5.00,0.00,24.0,22.4,00.0,33.0,25.8,19.6,0000.0,0003.57,0005.46,0003.39
2022-12-29 01:49:00,,0811.1,5.00,0.00,24.0,22.5,00.0,33.0,25.8,19.6,0000.0,0003.58,0005.50,0003.40
2022-12-29 01:50:00,,0811.2,5.00,0.00,24.0,22.5,00.0,33.0,25.8,19.5,0000.0,0003.59,0005.48,0003.41
2022-12-29 01:51:00,,0811.2,5.01,0.00,24.0,22.6,00.0,33.0,25.9,19.5,0000.0,0003.58,0005.39,0003.42
2022-12-29 01:52:00,,0811.2,5.00,0.00,24.0,22.7,00.0,33.0,25.9,19.5,0000.0,0003.59,0005.37,0003.45
2022-12-29 01:53:00,,0811.2,5.00,0.00,24.0,22.8,00.0,33.0,25.9,19.5,0000.0,0003.58,0005.25,0003.45
2022-12-29 01:54:00,,0811.2,5.01,0.00,24.1,22.8,00.0,33.0,26.0,19.4,0000.0,0003.57,0005.14,0003.47
2022-12-29 01:55:00,,0811.2,5.01,0.00,24.1,22.8,00.0,33.0,26.0,19.4,0000.0,0003.58,0005.11,0003.49
2022-12-29 01:56:00,,0811.1,5.00,0.00,24.1,22.9,00.0,33.0,26.0,19.4,0000.0,0003.62,0005.21,0003.52
2022-12-29 01:57:00,,0811.2,4.99,0.00,24.1,22.9,00.0,33.0,26.1,19.3,0000.0,0003.63,0005.24,0003.54
2022-12-29 01:58:00,,0811.2,5.00,0.00,24.1,23.0,00.0,33.0,26.1,19.3,0000.0,0003.64,0005.22,0003.56
2022-12-29 01:59:00,,0811.2,5.01,0.00,24.2,23.0,00.0,33.0,26.1,19.4,0000.0,0003.67,0005.27,0003.58
